Location: Moscow Pond
(43.6842°N, 73.2366°W)
Time: 20:38:59
(UTC+00:00)

ARIANE 5 R/B - Pass Details

Date: 08 November 2025
Orbit: 746 x 792 km, 98.8° (Epoch: 05 December)

Event Time Altitude Azimuth Distance (km) Brightness Sun altitude
Rises 10:45:52 0° 22° (NNE) 3,220 5.8 -9.8°
Reaches altitude 10° 10:48:20 10° 31° (NNE) 2,297 5.2 -9.4°
Maximum altitude 10:52:58 36° 98° (E) 1,205 4.4 -8.6°
Drops below altitude 10° 10:57:38 10° 164° (SSE) 2,308 5.4 -7.8°
Sets 11:00:07 0° 173° (S) 3,237 6.1 -7.4°
